STARLINK-32347, 61010

Orbit data source: Space-Track

STARLINK-32347, 61010 is a payload satellite owned by SpaceX/Seattle (US) in LEO that was launched on Thu, 05 Sep 2024 UTC via an FALCON 9 launch vehicle from the Air Force Eastern Test Range (AFETR). Payload-class satellites include a variety of spacecraft equipped with specific instruments for various scientific and technological missions. These include communications satellites like Starlink; space stations such as the ISS; scientific satellites like the Hubble; Earth observation satellites from companies like Planet Labs, Umbra, and HawkEye 360; GPS; miniature CubeSats for education and research; and military/defense satellites.

Loading next visibility...
Identifier
61010, 2024-158W
Orbit
LEO
Last TLE update
21 hours ago
Origin
Manufacturer
SpaceX/Seattle
Mission
Operational Commercial Communications
Bus & Motor
STARLINK V2M, Unknown motor
Mass
730 kg wet, ~700 kg dry
Launch date (UTC)
2024-09-05 (10 months ago)
Launch vehicle
FALCON 9
Launch site
Air Force Eastern Test Range (AFETR)
Object type
Payload
Rocket body
Debris
Shape & HBR
Box + 2 Pan, 29 m
Radar Cross Section
33.884 m², Large (>1 m²)

Expand to show TLE details & history

TLE from 21 hours ago
0 STARLINK-32347
1 61010U 24158W   25191.51201014  .00000028  00000-0  13077-4 0  9992
2 61010  53.1597 110.3576 0001354  92.1313 267.9842 15.30190502 48506
Epoch: 2025-07-10T12:17Z
TLE epoch observation values (Epoch: 2025-07-10T12:17:17.676Z)
Latitude
-0.00007°
Longitude
-2.64333°
Altitude
476.176 km
Speed
7.629 km/s
True Right ascension
07h 21m 25s
True Declination
0° 00' 00"
Sunlit
Object was in daylight at epoch
Visualization orbit readout
Latitude
-17.17374°
Longitude
-173.44578°
Altitude
480.176 km
Speed
7.626 km/s
Apparent Right ascension
16h 54m 36s
Apparent Declination
-62° 13' 23"
Sunlit
Object is in full shadow
Visualization observer readout
Local Sidereal Time
21:50:18
Azimuth
210.462° SW
Elevation
-27.954°
Doppler factor
1
Orbital elements
Apogee altitude
476.428 km
Perigee altitude
474.572 km
Semi-major axis
6,853.637 km
Eccentricity
0.00014
Inclination
53.1597°
RAAN
110.3576°
Arg. of periapsis
92.1313°
True anomaly
Unknown
Mean anomaly
267.9842°
Eccentric anomaly
Unknown
Mean motion
3.82527 °/min
Orbital period
94.11 mins
BSTAR
0.000013077
Loading maneuver chart data...
Loading SW <> Apogee altitude chart data...
Loading historical data...
Loading historical data...
Loading historical data...
Loading historical data...
Loading historical data...
Loading historical data...
Loading historical data...

STARLINK-32347 Visibility forecast

Observer location: undefined°, undefined°

Span
Click to sort rows by Start time (UTC) header in descending order
Start Az.
Max El. time (UTC)
Max El. Az.
Max El.
End time (UTC)
End Az.
5 mins2025-07-11 21:24:34.736Z243.971° WSW2025-07-11 21:26:34.736Z288.459° WNW40.951°2025-07-11 21:29:34.736Z41.944° NE
4 mins2025-07-12 02:21:34.736Z342.41° N2025-07-12 02:23:34.736Z20.692° NNE18.619°2025-07-12 02:25:34.736Z61.191° ENE
6 mins2025-07-12 03:59:34.736Z305.899° NW2025-07-12 04:01:34.736Z281.686° WNW42.618°2025-07-12 04:05:34.736Z135.756° SSE
|